Amateur radio
NORAD ID: 32787
Int'l Code: 2008-021E
Perigee: 608.7 km
Apogee: 630.1 km
Inclination: 97.8 °
Period: 96.9 minutes
Semi major axis: 6990 km
Launch date: April 28, 2008
Source: Germany (GER)
Comments: This is a CubeSat satellite. Compass-One was designed and built by students at Aachen University of Applied Sciences in Germany. The satellite features a Morse code telemetry beacon at 437.275 MHz. Compass-1 will also provide a packet radio data downlink, which will include image data, at 437.405 MHz.
Two Line Element Set (TLE):
1 32787U 08021E 13141.79964688 .00002645 00000-0 31247-3 0 6281
2 32787 097.7549 201.0439 0015260 036.2174 324.0071 14.85418467274048
Source: AFSPC
NASA's NSSDC Master Catalog entry for COMPASS 1